Flag for Pakistan Weather past 2 weeks in Karachi, Pakistan

Now
88 °F

Broken clouds.


Feels Like: 98 °F
Forecast: 84 / 90 °F
Wind: 10 mph from Southwest

Location: Karachi Airport

Current Time: Jul 26, 2014 at 10:56:41 AM

Latest Report: Jul 26, 2014 at 10:25 AM


Visibility: 4 mi

Pressure: 29.62 "Hg

Humidity: 66%

Dew point: 75 °F

Location of KarachiLocation

Historic Weather in Karachi — Graph

°F

Karachi temperature yesterday

Maximum temperature yesterday: 88 °F (at 3:55 PM)
Minimum temperature yesterday: 82 °F (at 10:25 AM)
Average temperature yesterday: 85 °F

Past Weeks' High & Low Weather Summary

 TemperatureHumidityPressure
High95 °F (Jul 14, 12:25 PM)100% (Jul 15, 2:25 AM)29.62 "Hg (Jul 15, 2:25 AM)
Low48 °F (Jul 15, 2:25 AM)44% (Jul 14, 1:55 PM)29.33 "Hg (Jul 20, 2:25 PM)
Average87 °F65%29.49 "Hg
* Reported Jul 11 9:25 AM — Jul 26 9:55 AM, Karachi, Weather by CustomWeather, © 2014

Note: Actual official high and low records may vary slightly from our data, if they occured in-between our weather recording intervals... More about our weather records

Advertising

Karachi weather history for previous 24 hours

 ConditionsComfort  
Time TempWeatherWind HumidityBarometerVisibility
9:55 AM
Jul 26
86 °FBroken clouds.12 mph75%29.62 "Hg4 mi
9:25 AM86 °FMore clouds than sun.7 mph75%29.62 "Hg4 mi
8:55 AM84 °FMore clouds than sun.10 mph79%29.62 "Hg4 mi
8:25 AM84 °FBroken clouds.9 mph79%29.62 "Hg4 mi
7:55 AM84 °FMore clouds than sun.12 mph79%29.62 "Hg4 mi
7:25 AM82 °FMostly cloudy.8 mph84%29.59 "Hg4 mi
6:55 AM82 °FMostly cloudy.8 mph84%29.59 "Hg4 mi
6:25 AM82 °FBroken clouds.8 mph84%29.59 "Hg4 mi
5:55 AM82 °FPartly cloudy.7 mph84%29.56 "Hg4 mi
5:00 AM82 °FPartly cloudy.7 mph84%29.56 "Hg4 mi
4:30 AM82 °FPartly cloudy.9 mph84%29.56 "Hg4 mi
3:55 AM79 °FPartly cloudy.8 mph94%29.56 "Hg4 mi
3:25 AM82 °FPassing clouds.8 mph84%29.56 "Hg4 mi
2:55 AM82 °FPassing clouds.7 mph84%29.56 "Hg4 mi
2:30 AM82 °FPassing clouds.9 mph84%29.56 "Hg4 mi
1:55 AM82 °FPassing clouds.7 mph84%29.56 "Hg4 mi
12:55 AM82 °FPartly cloudy.8 mph84%29.56 "Hg4 mi
12:30 AM82 °FPartly cloudy.8 mph84%29.56 "Hg4 mi
12:00 AM82 °FPartly cloudy.13 mph84%29.59 "Hg4 mi
11:25 PM
Jul 25
82 °FPartly cloudy.8 mph84%29.59 "Hg4 mi
10:55 PM82 °FPartly cloudy.8 mph84%29.59 "Hg4 mi
10:25 PM82 °FMostly cloudy.7 mph84%29.59 "Hg4 mi
9:55 PM82 °FMostly cloudy.9 mph84%29.56 "Hg4 mi
8:55 PM84 °FMostly cloudy.9 mph79%29.56 "Hg4 mi
8:25 PM84 °FMostly cloudy.8 mph74%29.56 "Hg4 mi
7:55 PM84 °FMostly cloudy.12 mph74%29.56 "Hg4 mi
7:25 PM84 °FPartly cloudy.9 mph74%29.53 "Hg4 mi
6:25 PM86 °FMore clouds than sun.12 mph70%29.53 "Hg4 mi
5:55 PM86 °FMore clouds than sun.12 mph70%29.53 "Hg4 mi
5:25 PM86 °FMore clouds than sun.6 mph70%29.50 "Hg4 mi
4:55 PM86 °FMore clouds than sun.10 mph70%29.50 "Hg4 mi
4:25 PM88 °FMore clouds than sun.8 mph66%29.50 "Hg4 mi
3:55 PM88 °FScattered clouds.7 mph66%29.50 "Hg4 mi
3:25 PM86 °FMore clouds than sun.6 mph70%29.53 "Hg4 mi
2:55 PM86 °FMostly cloudy.6 mph70%29.53 "Hg4 mi
2:25 PM86 °FMostly cloudy.6 mph75%29.53 "Hg4 mi
1:55 PM86 °FMostly cloudy.8 mph75%29.53 "Hg4 mi
12:55 PM84 °FMostly cloudy.6 mph79%29.56 "Hg4 mi
12:25 PM84 °FDrizzle. Mostly cloudy.6 mph79%29.59 "Hg4 mi
11:55 AM84 °FDrizzle. Mostly cloudy.7 mph79%29.56 "Hg3 mi
11:25 AM84 °FDrizzle. Mostly cloudy.6 mph84%29.59 "Hg3 mi
10:55 AM84 °FDrizzle. Mostly cloudy.No wind84%29.59 "Hg3 mi
10:25 AM82 °FLight rain. Mostly cloudy.No wind89%29.59 "Hg3 mi
Weather by CustomWeather, © 2014

See weather overviewHow to use our weather pages